Regional Weather Roundup
Issued by NWS

Home | Current Version | Previous Version | Graphics & Text | Print | Product List | Glossary On
Versions: 1 2 3 4 5 6 7 8 9 10 11 12 13 14 15 16 17 18 19 20 21 22 23 24 25 26 27 28 29 30 31 32 33 34 35 36 37 38 39 40 41 42 43 44 45 46 47 48 49 50
917
ASUS45 KBOI 130710
RWRID

IDAHO REGIONAL WEATHER ROUNDUP
NATIONAL WEATHER SERVICE BOISE ID
1200 AM MST SAT FEB 13 2016

NOTE: "FAIR" INDICATES FEW OR NO CLOUDS BELOW 12000 FEET
WITH NO SIGNIFICANT WEATHER AND/OR OBSTRUCTIONS TO VISIBILITY

IDZ012-014-130800-
SOUTHWEST IDAHO


CITY           SKY/WX    TMP DP  RH WIND       PRES   REMARKS
BOISE          CLOUDY    39  31  72 SW8       30.18S WCI  33
CALDWELL       CLOUDY    35  33  92 W3        30.20S
MOUNTAIN HOME  CLOUDY    38  31  76 E12       30.18F WCI  30
$$

IDZ016-017-130800-
SOUTHCENTRAL IDAHO


CITY           SKY/WX    TMP DP  RH WIND       PRES   REMARKS
BURLEY         MOCLDY    31  29  92 VRB3      30.18S
JEROME         CLOUDY    32  26  78 NE18      30.18F WCI  20
TWIN FALLS     CLOUDY    32  30  92 SE8       30.18F WCI  25
$$

IDZ019>023-130800-
SOUTHEAST IDAHO


CITY           SKY/WX    TMP DP  RH WIND       PRES   REMARKS
IDAHO FALLS    CLOUDY    21  17  84 CALM      30.22F
POCATELLO      CLOUDY    27  24  89 E5        30.22F WCI  22
REXBURG        CLOUDY    28  25  88 CALM      30.21F
$$

IDZ006-010-011-018-031-032-130800-
CENTRAL IDAHO MOUNTAINS


CITY           SKY/WX    TMP DP  RH WIND       PRES   REMARKS
MCCALL         MOCLDY    31  28  89 CALM      30.12F
HAILEY         CLOUDY    34  30  86 CALM      30.21S
STANLEY          N/A     33  27  78 CALM      30.17F
SALMON         CLOUDY    28  27  93 CALM      30.15F
CHALLIS        PTCLDY    25  22  88 S3        30.15F
$$

IDZ002-004-006-007-026-130800-
NORTHERN IDAHO


CITY           SKY/WX    TMP DP  RH WIND       PRES   REMARKS
LEWISTON       LGT RAIN  46  43  89 NW6       30.17R
LOWELL           N/A     41  38  89 CALM      30.16R
COEUR D`ALENE  CLOUDY    43  39  87 S6        30.07S
MULLAN PASS    HVY SNOW  31  30  96 VRB7      30.03F VSB 1/4 WCI  24
$$




USA.gov is the U.S. government's official web portal to all federal, state and local government web resources and services.